Location: Central Falls
(41.8900°N, 71.3929°W)
Time: 11:39:21
(UTC+00:00)

A-11 Canister half - Pass Details

Date: 08 December 2023
Orbit: 1512 x 1687 km, 47.2° (Epoch: 20 February)

Event Time Altitude Azimuth Distance (km) Brightness Sun altitude
Rises 06:42:02 0° 273° (W) 4,757 - -57.7°
Reaches altitude 10° 06:45:07 10° 276° (W) 3,796 - -57.2°
Maximum altitude 06:54:46 65° 358° (N) 1,772 - -55.5°
Exits shadow 07:00:33 29° 71° (ENE) 2,709 10.4 -54.5°
Drops below altitude 10° 07:04:47 10° 80° (E) 3,926 11.5 -53.8°
Sets 07:08:02 0° 83° (E) 4,927 12.2 -53.2°
